Year,Month,Day,Hour,Minute,Value (Times are PST for temperature in C)
2013,08,08,00,00,13.90
2013,08,08,00,01,13.90
2013,08,08,00,02,13.90
2013,08,08,00,03,13.90
2013,08,08,00,04,13.80
2013,08,08,00,05,13.80
2013,08,08,00,06,13.80
2013,08,08,00,07,13.80
2013,08,08,00,08,13.80
2013,08,08,00,09,13.90
2013,08,08,00,10,13.90
2013,08,08,00,11,13.90
2013,08,08,00,12,13.90
2013,08,08,00,13,13.80
2013,08,08,00,14,13.80
2013,08,08,00,15,13.80
2013,08,08,00,16,13.80
2013,08,08,00,17,13.80
2013,08,08,00,18,13.80
2013,08,08,00,19,13.90
2013,08,08,00,20,13.90
2013,08,08,00,21,13.90
2013,08,08,00,22,13.90
2013,08,08,00,23,13.90
2013,08,08,00,24,13.90
2013,08,08,00,25,13.90
2013,08,08,00,26,13.80
2013,08,08,00,27,13.90
2013,08,08,00,28,13.90
2013,08,08,00,29,13.90
2013,08,08,00,30,13.90
2013,08,08,00,31,13.90
2013,08,08,00,32,13.90
2013,08,08,00,33,13.80
2013,08,08,00,34,13.80
2013,08,08,00,35,13.80
2013,08,08,00,36,13.70
2013,08,08,00,37,13.70
2013,08,08,00,38,13.80
2013,08,08,00,39,13.80
2013,08,08,00,40,13.80
2013,08,08,00,41,13.80
2013,08,08,00,42,13.70
2013,08,08,00,43,13.70
2013,08,08,00,44,13.70
2013,08,08,00,45,13.70
2013,08,08,00,46,13.80
2013,08,08,00,47,13.80
2013,08,08,00,48,13.80
2013,08,08,00,49,13.80
2013,08,08,00,50,13.80
2013,08,08,00,51,13.90
2013,08,08,00,52,13.90
2013,08,08,00,53,13.90
2013,08,08,00,54,13.90
2013,08,08,00,55,13.80
2013,08,08,00,56,13.90
2013,08,08,00,57,13.90
2013,08,08,00,58,14.00
2013,08,08,00,59,14.00
2013,08,08,01,00,14.00
2013,08,08,01,01,14.00
2013,08,08,01,02,14.00
2013,08,08,01,03,13.90
2013,08,08,01,04,13.90
2013,08,08,01,05,13.90
2013,08,08,01,06,13.90
2013,08,08,01,07,13.90
2013,08,08,01,08,13.90
2013,08,08,01,09,13.90
2013,08,08,01,10,13.90
2013,08,08,01,11,13.90
2013,08,08,01,12,13.90
2013,08,08,01,13,14.00
2013,08,08,01,14,14.00
2013,08,08,01,15,13.90
2013,08,08,01,16,13.90
2013,08,08,01,17,13.90
2013,08,08,01,18,13.90
2013,08,08,01,19,13.90
2013,08,08,01,20,13.90
2013,08,08,01,21,13.90
2013,08,08,01,22,13.90
2013,08,08,01,23,13.90
2013,08,08,01,24,14.00
2013,08,08,01,25,14.00
2013,08,08,01,26,14.10
2013,08,08,01,27,14.10
2013,08,08,01,28,14.00
2013,08,08,01,29,14.00
2013,08,08,01,30,13.90
2013,08,08,01,31,13.90
2013,08,08,01,32,13.80
2013,08,08,01,33,13.70
2013,08,08,01,34,13.70
2013,08,08,01,35,13.60
2013,08,08,01,36,13.60
2013,08,08,01,37,13.70
2013,08,08,01,38,13.70
2013,08,08,01,39,13.70
2013,08,08,01,40,13.70
2013,08,08,01,41,13.80
2013,08,08,01,42,13.80
2013,08,08,01,43,13.80
2013,08,08,01,44,13.80
2013,08,08,01,45,13.70
2013,08,08,01,46,13.70
2013,08,08,01,47,13.70
2013,08,08,01,48,13.70
2013,08,08,01,49,13.70
2013,08,08,01,50,13.70
2013,08,08,01,51,13.60
2013,08,08,01,52,13.60
2013,08,08,01,53,13.60
2013,08,08,01,54,13.60
2013,08,08,01,55,13.60
2013,08,08,01,56,13.60
2013,08,08,01,57,13.60
2013,08,08,01,58,13.60
2013,08,08,01,59,13.60
2013,08,08,02,00,13.60
2013,08,08,02,01,13.60
2013,08,08,02,02,13.60
2013,08,08,02,03,13.60
2013,08,08,02,04,13.60
2013,08,08,02,05,13.60
2013,08,08,02,06,13.60
2013,08,08,02,07,13.60
2013,08,08,02,08,13.60
2013,08,08,02,09,13.60
2013,08,08,02,10,13.60
2013,08,08,02,11,13.50
2013,08,08,02,12,13.50
2013,08,08,02,13,13.50
2013,08,08,02,14,13.50
2013,08,08,02,15,13.60
2013,08,08,02,16,13.60
2013,08,08,02,17,13.60
2013,08,08,02,18,13.50
2013,08,08,02,19,13.60
2013,08,08,02,20,13.60
2013,08,08,02,21,13.60
2013,08,08,02,22,13.60
2013,08,08,02,23,13.60
2013,08,08,02,24,13.60
2013,08,08,02,25,13.60
2013,08,08,02,26,13.60
2013,08,08,02,27,13.60
2013,08,08,02,28,13.60
2013,08,08,02,29,13.60
2013,08,08,02,30,13.70
2013,08,08,02,31,13.70
2013,08,08,02,32,13.70
2013,08,08,02,33,13.70
2013,08,08,02,34,13.70
2013,08,08,02,35,13.70
2013,08,08,02,36,13.60
2013,08,08,02,37,13.70
2013,08,08,02,38,13.70
2013,08,08,02,39,13.70
2013,08,08,02,40,13.70
2013,08,08,02,41,13.70
2013,08,08,02,42,13.80
2013,08,08,02,43,13.80
2013,08,08,02,44,13.80
2013,08,08,02,45,13.80
2013,08,08,02,46,13.80
2013,08,08,02,47,13.80
2013,08,08,02,48,13.90
2013,08,08,02,49,13.90
2013,08,08,02,50,13.90
2013,08,08,02,51,13.90
2013,08,08,02,52,13.90
2013,08,08,02,53,13.80
2013,08,08,02,54,13.80
2013,08,08,02,55,13.80
2013,08,08,02,56,13.80
2013,08,08,02,57,13.80
2013,08,08,02,58,13.80
2013,08,08,02,59,13.80
2013,08,08,03,00,13.80
2013,08,08,03,01,13.80
2013,08,08,03,02,13.80
2013,08,08,03,03,13.90
2013,08,08,03,04,13.90
2013,08,08,03,05,14.00
2013,08,08,03,06,14.00
2013,08,08,03,07,14.10
2013,08,08,03,08,14.00
2013,08,08,03,09,14.00
2013,08,08,03,10,14.00
2013,08,08,03,11,14.00
2013,08,08,03,12,14.10
2013,08,08,03,13,14.10
2013,08,08,03,14,14.10
2013,08,08,03,15,14.10
2013,08,08,03,16,14.10
2013,08,08,03,17,14.10
2013,08,08,03,18,14.10
2013,08,08,03,19,14.10
2013,08,08,03,20,14.00
2013,08,08,03,21,14.00
2013,08,08,03,22,14.00
2013,08,08,03,23,13.90
2013,08,08,03,24,13.90
2013,08,08,03,25,13.90
2013,08,08,03,26,14.00
2013,08,08,03,27,14.00
2013,08,08,03,28,14.10
2013,08,08,03,29,14.10
2013,08,08,03,30,14.10
2013,08,08,03,31,14.10
2013,08,08,03,32,14.10
2013,08,08,03,33,14.10
2013,08,08,03,34,14.10
2013,08,08,03,35,14.10
2013,08,08,03,36,14.00
2013,08,08,03,37,14.10
2013,08,08,03,38,14.00
2013,08,08,03,39,14.00
2013,08,08,03,40,14.00
2013,08,08,03,41,14.00
2013,08,08,03,42,14.00
2013,08,08,03,43,13.90
2013,08,08,03,44,13.90
2013,08,08,03,45,13.90
2013,08,08,03,46,13.90
2013,08,08,03,47,13.90
2013,08,08,03,48,13.90
2013,08,08,03,49,14.00
2013,08,08,03,50,13.90
2013,08,08,03,51,13.90
2013,08,08,03,52,13.90
2013,08,08,03,53,13.90
2013,08,08,03,54,13.90
2013,08,08,03,55,13.90
2013,08,08,03,56,13.90
2013,08,08,03,57,13.90
2013,08,08,03,58,14.00
2013,08,08,03,59,14.00
2013,08,08,04,00,14.10
2013,08,08,04,01,14.10
2013,08,08,04,02,14.10
2013,08,08,04,03,14.10
2013,08,08,04,04,14.10
2013,08,08,04,05,14.10
2013,08,08,04,06,14.10
2013,08,08,04,07,14.10
2013,08,08,04,08,14.10
2013,08,08,04,09,14.00
2013,08,08,04,10,14.00
2013,08,08,04,11,14.00
2013,08,08,04,12,13.90
2013,08,08,04,13,13.90
2013,08,08,04,14,14.00
2013,08,08,04,15,14.10
2013,08,08,04,16,14.10
2013,08,08,04,17,14.00
2013,08,08,04,18,13.90
2013,08,08,04,19,13.90
2013,08,08,04,20,14.00
2013,08,08,04,21,14.00
2013,08,08,04,22,14.00
2013,08,08,04,23,14.10
2013,08,08,04,24,14.10
2013,08,08,04,25,14.10
2013,08,08,04,26,14.00
2013,08,08,04,27,14.00
2013,08,08,04,28,14.10
2013,08,08,04,29,14.10
2013,08,08,04,30,14.20
2013,08,08,04,31,14.30
2013,08,08,04,32,14.30
2013,08,08,04,33,14.20
2013,08,08,04,34,14.20
2013,08,08,04,35,14.20
2013,08,08,04,36,14.20
2013,08,08,04,37,14.40
2013,08,08,04,38,14.50
2013,08,08,04,39,14.60
2013,08,08,04,40,14.60
2013,08,08,04,41,14.70
2013,08,08,04,42,14.70
2013,08,08,04,43,14.60
2013,08,08,04,44,14.60
2013,08,08,04,45,14.60
2013,08,08,04,46,14.50
2013,08,08,04,47,14.50
2013,08,08,04,48,14.60
2013,08,08,04,49,14.60
2013,08,08,04,50,14.70
2013,08,08,04,51,14.70
2013,08,08,04,52,14.60
2013,08,08,04,53,14.50
2013,08,08,04,54,14.50
2013,08,08,04,55,14.60
2013,08,08,04,56,14.60
2013,08,08,04,57,14.60
2013,08,08,04,58,14.50
2013,08,08,04,59,14.50
2013,08,08,05,00,14.50
2013,08,08,05,01,14.40
2013,08,08,05,02,14.40
2013,08,08,05,03,14.30
2013,08,08,05,04,14.30
2013,08,08,05,05,14.40
2013,08,08,05,06,14.50
2013,08,08,05,07,14.60
2013,08,08,05,08,14.60
2013,08,08,05,09,14.50
2013,08,08,05,10,14.40
2013,08,08,05,11,14.40
2013,08,08,05,12,14.40
2013,08,08,05,13,14.40
2013,08,08,05,14,14.60
2013,08,08,05,15,14.70
2013,08,08,05,16,14.80
2013,08,08,05,17,14.70
2013,08,08,05,18,14.50
2013,08,08,05,19,14.50
2013,08,08,05,20,14.50
2013,08,08,05,21,14.70
2013,08,08,05,22,14.70
2013,08,08,05,23,14.80
2013,08,08,05,24,14.70
2013,08,08,05,25,14.70
2013,08,08,05,26,14.70
2013,08,08,05,27,14.70
2013,08,08,05,28,14.60
2013,08,08,05,29,14.60
2013,08,08,05,30,14.60
2013,08,08,05,31,14.60
2013,08,08,05,32,14.70
2013,08,08,05,33,14.80
2013,08,08,05,34,14.80
2013,08,08,05,35,14.90
2013,08,08,05,36,14.90
2013,08,08,05,37,14.80
2013,08,08,05,38,14.80
2013,08,08,05,39,14.60
2013,08,08,05,40,14.60
2013,08,08,05,41,14.50
2013,08,08,05,42,14.50
2013,08,08,05,43,14.40
2013,08,08,05,44,14.50
2013,08,08,05,45,14.60
2013,08,08,05,46,14.70
2013,08,08,05,47,14.80
2013,08,08,05,48,14.90
2013,08,08,05,49,14.80
2013,08,08,05,50,14.70
2013,08,08,05,51,14.70
2013,08,08,05,52,14.70
2013,08,08,05,53,14.70
2013,08,08,05,54,14.60
2013,08,08,05,55,14.60
2013,08,08,05,56,14.60
2013,08,08,05,57,14.60
2013,08,08,05,58,14.70
2013,08,08,05,59,14.80
2013,08,08,06,00,14.80
2013,08,08,06,01,14.80
2013,08,08,06,02,14.70
2013,08,08,06,03,14.60
2013,08,08,06,04,14.60
2013,08,08,06,05,14.50
2013,08,08,06,06,14.50
2013,08,08,06,07,14.60
2013,08,08,06,08,14.60
2013,08,08,06,09,14.70
2013,08,08,06,10,14.70
2013,08,08,06,11,14.80
2013,08,08,06,12,14.80
2013,08,08,06,13,14.80
2013,08,08,06,14,14.80
2013,08,08,06,15,14.70
2013,08,08,06,16,14.70
2013,08,08,06,17,14.60
2013,08,08,06,18,14.60
2013,08,08,06,19,14.70
2013,08,08,06,20,14.80
2013,08,08,06,21,14.90
2013,08,08,06,22,14.90
2013,08,08,06,23,14.90
2013,08,08,06,24,14.90
2013,08,08,06,25,14.90
2013,08,08,06,26,14.90
2013,08,08,06,27,14.80
2013,08,08,06,28,14.80
2013,08,08,06,29,14.80
2013,08,08,06,30,14.80
2013,08,08,06,31,14.80
2013,08,08,06,32,14.70
2013,08,08,06,33,14.60
2013,08,08,06,34,14.60
2013,08,08,06,35,14.50
2013,08,08,06,36,14.50
2013,08,08,06,37,14.50
2013,08,08,06,38,14.60
2013,08,08,06,39,14.60
2013,08,08,06,40,14.60
2013,08,08,06,41,14.60
2013,08,08,06,42,14.60
2013,08,08,06,43,14.60
2013,08,08,06,44,14.60
2013,08,08,06,45,14.50
2013,08,08,06,46,14.50
2013,08,08,06,47,14.40
2013,08,08,06,48,14.40
2013,08,08,06,49,14.40
2013,08,08,06,50,14.50
2013,08,08,06,51,14.60
2013,08,08,06,52,14.70
2013,08,08,06,53,14.80
2013,08,08,06,54,14.80
2013,08,08,06,55,14.90
2013,08,08,06,56,14.90
2013,08,08,06,57,14.80
2013,08,08,06,58,14.80
2013,08,08,06,59,14.70
2013,08,08,07,00,14.70
2013,08,08,07,01,14.70
2013,08,08,07,02,14.70
2013,08,08,07,03,14.80
2013,08,08,07,04,14.80
2013,08,08,07,05,14.70
2013,08,08,07,06,14.70
2013,08,08,07,07,14.70
2013,08,08,07,08,14.70
2013,08,08,07,09,14.60
2013,08,08,07,10,14.60
2013,08,08,07,11,14.60
2013,08,08,07,12,14.70
2013,08,08,07,13,14.70
2013,08,08,07,14,14.70
2013,08,08,07,15,14.70
2013,08,08,07,16,14.70
2013,08,08,07,17,14.60
2013,08,08,07,18,14.60
2013,08,08,07,19,14.50
2013,08,08,07,20,14.50
2013,08,08,07,21,14.40
2013,08,08,07,22,14.40
2013,08,08,07,23,14.50
2013,08,08,07,24,14.60
2013,08,08,07,25,14.60
2013,08,08,07,26,14.50
2013,08,08,07,27,14.60
2013,08,08,07,28,14.70
2013,08,08,07,29,14.80
2013,08,08,07,30,14.80
2013,08,08,07,31,14.70
2013,08,08,07,32,14.60
2013,08,08,07,33,14.60
2013,08,08,07,34,14.60
2013,08,08,07,35,14.70
2013,08,08,07,36,14.80
2013,08,08,07,37,14.80
2013,08,08,07,38,14.90
2013,08,08,07,39,14.90
2013,08,08,07,40,15.00
2013,08,08,07,41,15.10
2013,08,08,07,42,15.10
2013,08,08,07,43,15.20
2013,08,08,07,44,15.30
2013,08,08,07,45,15.30
2013,08,08,07,46,15.40
2013,08,08,07,47,15.50
2013,08,08,07,48,15.50
2013,08,08,07,49,15.60
2013,08,08,07,50,15.60
2013,08,08,07,51,15.70
2013,08,08,07,52,15.70
2013,08,08,07,53,15.80
2013,08,08,07,54,15.80
2013,08,08,07,55,15.80
2013,08,08,07,56,15.80
2013,08,08,07,57,15.90
2013,08,08,07,58,15.80
2013,08,08,07,59,15.80
2013,08,08,08,00,15.60
2013,08,08,08,01,15.40
2013,08,08,08,02,15.10
2013,08,08,08,03,15.00
2013,08,08,08,04,14.80
2013,08,08,08,05,14.80
2013,08,08,08,06,14.90
2013,08,08,08,07,15.00
2013,08,08,08,08,15.00
2013,08,08,08,09,15.00
2013,08,08,08,10,15.10
2013,08,08,08,11,15.20
2013,08,08,08,12,15.00
2013,08,08,08,13,14.90
2013,08,08,08,14,14.70
2013,08,08,08,15,14.70
2013,08,08,08,16,14.60
2013,08,08,08,17,14.40
2013,08,08,08,18,14.10
2013,08,08,08,19,14.20
2013,08,08,08,20,14.20
2013,08,08,08,21,14.10
2013,08,08,08,22,14.00
2013,08,08,08,23,13.90
2013,08,08,08,24,13.90
2013,08,08,08,25,13.90
2013,08,08,08,26,13.80
2013,08,08,08,27,13.70
2013,08,08,08,28,13.60
2013,08,08,08,29,13.40
2013,08,08,08,30,13.20
2013,08,08,08,31,13.10
2013,08,08,08,32,13.10
2013,08,08,08,33,13.10
2013,08,08,08,34,13.20
2013,08,08,08,35,13.30
2013,08,08,08,36,13.50
2013,08,08,08,37,13.50
2013,08,08,08,38,13.60
2013,08,08,08,39,13.60
2013,08,08,08,40,13.60
2013,08,08,08,41,13.60
2013,08,08,08,42,13.60
2013,08,08,08,43,13.70
2013,08,08,08,44,13.70
2013,08,08,08,45,13.50
2013,08,08,08,46,13.30
2013,08,08,08,47,13.20
2013,08,08,08,48,13.20
2013,08,08,08,49,12.90
2013,08,08,08,50,12.70
2013,08,08,08,51,12.80
2013,08,08,08,52,13.00
2013,08,08,08,53,13.30
2013,08,08,08,54,13.30
2013,08,08,08,55,13.20
2013,08,08,08,56,13.20
2013,08,08,08,57,13.30
2013,08,08,08,58,13.30
2013,08,08,08,59,13.20
2013,08,08,09,00,13.30
2013,08,08,09,01,13.50
2013,08,08,09,02,13.70
2013,08,08,09,03,13.70
2013,08,08,09,04,13.90
2013,08,08,09,05,14.00
2013,08,08,09,06,14.00
2013,08,08,09,07,13.80
2013,08,08,09,08,13.50
2013,08,08,09,09,13.00
2013,08,08,09,10,12.60
2013,08,08,09,11,12.40
2013,08,08,09,12,12.20
2013,08,08,09,13,12.10
2013,08,08,09,14,12.00
2013,08,08,09,15,11.90
2013,08,08,09,16,11.90
2013,08,08,09,17,11.80
2013,08,08,09,18,11.80
2013,08,08,09,19,11.80
2013,08,08,09,20,11.70
2013,08,08,09,21,11.70
2013,08,08,09,22,11.70
2013,08,08,09,23,11.70
2013,08,08,09,24,11.70
2013,08,08,09,25,11.70
2013,08,08,09,26,11.60
2013,08,08,09,27,11.60
2013,08,08,09,28,11.60
2013,08,08,09,29,11.50
2013,08,08,09,30,11.50
2013,08,08,09,31,11.40
2013,08,08,09,32,11.50
2013,08,08,09,33,11.40
2013,08,08,09,34,11.40
2013,08,08,09,35,11.40
2013,08,08,09,36,11.40
2013,08,08,09,37,11.40
2013,08,08,09,38,11.40
2013,08,08,09,39,11.40
2013,08,08,09,40,11.30
2013,08,08,09,41,11.30
2013,08,08,09,42,11.30
2013,08,08,09,43,11.30
2013,08,08,09,44,11.30
2013,08,08,09,45,11.40
2013,08,08,09,46,11.40
2013,08,08,09,47,11.40
2013,08,08,09,48,11.40
2013,08,08,09,49,11.40
2013,08,08,09,50,11.40
2013,08,08,09,51,11.40
2013,08,08,09,52,11.40
2013,08,08,09,53,11.40
2013,08,08,09,54,11.40
2013,08,08,09,55,11.40
2013,08,08,09,56,11.40
2013,08,08,09,57,11.50
2013,08,08,09,58,11.50
2013,08,08,09,59,11.60
2013,08,08,10,00,11.60
2013,08,08,10,01,11.60
2013,08,08,10,02,11.60
2013,08,08,10,03,11.60
2013,08,08,10,04,11.70
2013,08,08,10,05,11.70
2013,08,08,10,06,11.80
2013,08,08,10,07,11.70
2013,08,08,10,08,11.70
2013,08,08,10,09,11.60
2013,08,08,10,10,11.60
2013,08,08,10,11,11.50
2013,08,08,10,12,11.50
2013,08,08,10,13,11.40
2013,08,08,10,14,11.40
2013,08,08,10,15,11.40
2013,08,08,10,16,11.40
2013,08,08,10,17,11.40
2013,08,08,10,18,11.40
2013,08,08,10,19,11.40
2013,08,08,10,20,11.40
2013,08,08,10,21,11.50
2013,08,08,10,22,11.50
2013,08,08,10,23,11.60
2013,08,08,10,24,11.60
2013,08,08,10,25,11.70
2013,08,08,10,26,11.70
2013,08,08,10,27,11.60
2013,08,08,10,28,11.70
2013,08,08,10,29,11.70
2013,08,08,10,30,11.70
2013,08,08,10,31,11.70
2013,08,08,10,32,11.60
2013,08,08,10,33,11.60
2013,08,08,10,34,11.60
2013,08,08,10,35,11.60
2013,08,08,10,36,11.60
2013,08,08,10,37,11.60
2013,08,08,10,38,11.60
2013,08,08,10,39,11.50
2013,08,08,10,40,11.50
2013,08,08,10,41,11.50
2013,08,08,10,42,11.50
2013,08,08,10,43,11.50
2013,08,08,10,44,11.50
2013,08,08,10,45,11.50
2013,08,08,10,46,11.50
2013,08,08,10,47,11.50
2013,08,08,10,48,11.60
2013,08,08,10,49,11.60
2013,08,08,10,50,11.60
2013,08,08,10,51,11.60
2013,08,08,10,52,11.60
2013,08,08,10,53,11.60
2013,08,08,10,54,11.60
2013,08,08,10,55,11.60
2013,08,08,10,56,11.60
2013,08,08,10,57,11.60
2013,08,08,10,58,11.60
2013,08,08,10,59,11.60
2013,08,08,11,00,11.70
2013,08,08,11,01,11.70
2013,08,08,11,02,11.70
2013,08,08,11,03,11.70
2013,08,08,11,04,11.70
2013,08,08,11,05,11.70
2013,08,08,11,06,11.70
2013,08,08,11,07,11.70
2013,08,08,11,08,11.70
2013,08,08,11,09,11.70
2013,08,08,11,10,11.70
2013,08,08,11,11,11.60
2013,08,08,11,12,11.60
2013,08,08,11,13,11.60
2013,08,08,11,14,11.60
2013,08,08,11,15,11.50
2013,08,08,11,16,11.50
2013,08,08,11,17,11.50
2013,08,08,11,18,11.50
2013,08,08,11,19,11.50
2013,08,08,11,20,11.50
2013,08,08,11,21,11.50
2013,08,08,11,22,11.50
2013,08,08,11,23,11.50
2013,08,08,11,24,11.50
2013,08,08,11,25,11.50
2013,08,08,11,26,11.50
2013,08,08,11,27,11.50
2013,08,08,11,28,11.50
2013,08,08,11,29,11.50
2013,08,08,11,30,11.50
2013,08,08,11,31,11.40
2013,08,08,11,32,11.40
2013,08,08,11,33,11.40
2013,08,08,11,34,11.40
2013,08,08,11,35,11.40
2013,08,08,11,36,11.40
2013,08,08,11,37,11.40
2013,08,08,11,38,11.40
2013,08,08,11,39,11.40
2013,08,08,11,40,11.40
2013,08,08,11,41,11.30
2013,08,08,11,42,11.30
2013,08,08,11,43,11.30
2013,08,08,11,44,11.30
2013,08,08,11,45,11.30
2013,08,08,11,46,11.30
2013,08,08,11,47,11.30
2013,08,08,11,48,11.30
2013,08,08,11,49,11.30
2013,08,08,11,50,11.30
2013,08,08,11,51,11.30
2013,08,08,11,52,11.30
2013,08,08,11,53,11.30
2013,08,08,11,54,11.30
2013,08,08,11,55,11.30
2013,08,08,11,56,11.30
2013,08,08,11,57,11.30
2013,08,08,11,58,11.30
2013,08,08,11,59,11.30
2013,08,08,12,00,11.30
2013,08,08,12,01,11.30
2013,08,08,12,02,11.30
2013,08,08,12,03,11.30
2013,08,08,12,04,11.30
2013,08,08,12,05,11.30
2013,08,08,12,06,11.30
2013,08,08,12,07,11.30
2013,08,08,12,08,11.30
2013,08,08,12,09,11.30
2013,08,08,12,10,11.30
2013,08,08,12,11,11.30
2013,08,08,12,12,11.30
2013,08,08,12,13,11.30
2013,08,08,12,14,11.30
2013,08,08,12,15,11.30
2013,08,08,12,16,11.30
2013,08,08,12,17,11.30
2013,08,08,12,18,11.30
2013,08,08,12,19,11.30
2013,08,08,12,20,11.30
2013,08,08,12,21,11.30
2013,08,08,12,22,11.30
2013,08,08,12,23,11.30
2013,08,08,12,24,11.30
2013,08,08,12,25,11.30
2013,08,08,12,26,11.30
2013,08,08,12,27,11.30
2013,08,08,12,28,11.30
2013,08,08,12,29,11.30
2013,08,08,12,30,11.30
2013,08,08,12,31,11.30
2013,08,08,12,32,11.30
2013,08,08,12,33,11.30
2013,08,08,12,34,11.30
2013,08,08,12,35,11.30
2013,08,08,12,36,11.30
2013,08,08,12,37,11.30
2013,08,08,12,38,11.30
2013,08,08,12,39,11.30
2013,08,08,12,40,11.40
2013,08,08,12,41,11.40
2013,08,08,12,42,11.40
2013,08,08,12,43,11.40
2013,08,08,12,44,11.40
2013,08,08,12,45,11.40
2013,08,08,12,46,11.40
2013,08,08,12,47,11.50
2013,08,08,12,48,11.50
2013,08,08,12,49,11.50
2013,08,08,12,50,11.50
2013,08,08,12,51,11.40
2013,08,08,12,52,11.40
2013,08,08,12,53,11.40
2013,08,08,12,54,11.40
2013,08,08,12,55,11.40
2013,08,08,12,56,11.40
2013,08,08,12,57,11.40
2013,08,08,12,58,11.30
2013,08,08,12,59,11.30
2013,08,08,13,00,11.30
2013,08,08,13,01,11.40
2013,08,08,13,02,11.40
2013,08,08,13,03,11.50
2013,08,08,13,04,11.50
2013,08,08,13,05,11.50
2013,08,08,13,06,11.60
2013,08,08,13,07,11.60
2013,08,08,13,08,11.60
2013,08,08,13,09,11.60
2013,08,08,13,10,11.60
2013,08,08,13,11,11.50
2013,08,08,13,12,11.50
2013,08,08,13,13,11.50
2013,08,08,13,14,11.50
2013,08,08,13,15,11.50
2013,08,08,13,16,11.50
2013,08,08,13,17,11.50
2013,08,08,13,18,11.50
2013,08,08,13,19,11.50
2013,08,08,13,20,11.50
2013,08,08,13,21,11.60
2013,08,08,13,22,11.60
2013,08,08,13,23,11.70
2013,08,08,13,24,11.70
2013,08,08,13,25,11.70
2013,08,08,13,26,11.70
2013,08,08,13,27,11.70
2013,08,08,13,28,11.70
2013,08,08,13,29,11.70
2013,08,08,13,30,11.70
2013,08,08,13,31,11.70
2013,08,08,13,32,11.70
2013,08,08,13,33,11.70
2013,08,08,13,34,11.70
2013,08,08,13,35,11.70
2013,08,08,13,36,11.70
2013,08,08,13,37,11.80
2013,08,08,13,38,11.80
2013,08,08,13,39,11.80
2013,08,08,13,40,11.80
2013,08,08,13,41,11.80
2013,08,08,13,42,11.80
2013,08,08,13,43,11.80
2013,08,08,13,44,11.80
2013,08,08,13,45,11.80
2013,08,08,13,46,11.80
2013,08,08,13,47,11.80
2013,08,08,13,48,11.90
2013,08,08,13,49,11.90
2013,08,08,13,50,12.00
2013,08,08,13,51,12.00
2013,08,08,13,52,12.00
2013,08,08,13,53,11.90
2013,08,08,13,54,12.00
2013,08,08,13,55,12.00
2013,08,08,13,56,12.10
2013,08,08,13,57,12.10
2013,08,08,13,58,12.10
2013,08,08,13,59,12.10
2013,08,08,14,00,12.10
2013,08,08,14,01,12.10
2013,08,08,14,02,12.10
2013,08,08,14,03,12.20
2013,08,08,14,04,12.20
2013,08,08,14,05,12.10
2013,08,08,14,06,12.10
2013,08,08,14,07,12.10
2013,08,08,14,08,12.10
2013,08,08,14,09,12.10
2013,08,08,14,10,12.10
2013,08,08,14,11,12.00
2013,08,08,14,12,12.10
2013,08,08,14,13,12.10
2013,08,08,14,14,12.10
2013,08,08,14,15,12.10
2013,08,08,14,16,12.10
2013,08,08,14,17,12.10
2013,08,08,14,18,12.10
2013,08,08,14,19,12.00
2013,08,08,14,20,12.10
2013,08,08,14,21,12.00
2013,08,08,14,22,12.00
2013,08,08,14,23,12.00
2013,08,08,14,24,12.00
2013,08,08,14,25,12.00
2013,08,08,14,26,12.10
2013,08,08,14,27,12.10
2013,08,08,14,28,12.10
2013,08,08,14,29,12.10
2013,08,08,14,30,12.10
2013,08,08,14,31,12.00
2013,08,08,14,32,12.00
2013,08,08,14,33,12.00
2013,08,08,14,34,12.00
2013,08,08,14,35,12.00
2013,08,08,14,36,12.00
2013,08,08,14,37,12.10
2013,08,08,14,38,12.10
2013,08,08,14,39,12.10
2013,08,08,14,40,12.10
2013,08,08,14,41,12.10
2013,08,08,14,42,12.00
2013,08,08,14,43,12.00
2013,08,08,14,44,12.00
2013,08,08,14,45,12.00
2013,08,08,14,46,12.00
2013,08,08,14,47,11.90
2013,08,08,14,48,11.90
2013,08,08,14,49,11.90
2013,08,08,14,50,11.90
2013,08,08,14,51,11.90
2013,08,08,14,52,12.00
2013,08,08,14,53,12.00
2013,08,08,14,54,12.00
2013,08,08,14,55,12.00
2013,08,08,14,56,12.00
2013,08,08,14,57,12.00
2013,08,08,14,58,12.00
2013,08,08,14,59,12.00
2013,08,08,15,00,12.10
2013,08,08,15,01,12.10
2013,08,08,15,02,12.10
2013,08,08,15,03,12.10
2013,08,08,15,04,12.10
2013,08,08,15,05,12.10
2013,08,08,15,06,12.10
2013,08,08,15,07,12.10
2013,08,08,15,08,12.10
2013,08,08,15,09,12.10
2013,08,08,15,10,12.20
2013,08,08,15,11,12.20
2013,08,08,15,12,12.30
2013,08,08,15,13,12.40
2013,08,08,15,14,12.50
2013,08,08,15,15,12.50
2013,08,08,15,16,12.50
2013,08,08,15,17,12.60
2013,08,08,15,18,12.60
2013,08,08,15,19,12.60
2013,08,08,15,20,12.60
2013,08,08,15,21,12.70
2013,08,08,15,22,12.70
2013,08,08,15,23,12.70
2013,08,08,15,24,12.80
2013,08,08,15,25,12.90
2013,08,08,15,26,13.00
2013,08,08,15,27,13.10
2013,08,08,15,28,13.20
2013,08,08,15,29,13.50
2013,08,08,15,30,13.80
2013,08,08,15,31,13.70
2013,08,08,15,32,13.50
2013,08,08,15,33,13.40
2013,08,08,15,34,13.40
2013,08,08,15,35,13.40
2013,08,08,15,36,13.80
2013,08,08,15,37,13.90
2013,08,08,15,38,13.90
2013,08,08,15,39,13.90
2013,08,08,15,40,13.80
2013,08,08,15,41,13.80
2013,08,08,15,42,13.70
2013,08,08,15,43,13.60
2013,08,08,15,44,13.50
2013,08,08,15,45,13.50
2013,08,08,15,46,13.50
2013,08,08,15,47,13.50
2013,08,08,15,48,13.50
2013,08,08,15,49,13.60
2013,08,08,15,50,13.70
2013,08,08,15,51,13.70
2013,08,08,15,52,13.70
2013,08,08,15,53,13.90
2013,08,08,15,54,13.90
2013,08,08,15,55,13.80
2013,08,08,15,56,13.80
2013,08,08,15,57,13.70
2013,08,08,15,58,13.80
2013,08,08,15,59,13.70
2013,08,08,16,00,14.10
2013,08,08,16,01,14.90
2013,08,08,16,02,15.20
2013,08,08,16,03,15.40
2013,08,08,16,04,15.30
2013,08,08,16,05,15.30
2013,08,08,16,06,15.50
2013,08,08,16,07,16.30
2013,08,08,16,08,17.00
2013,08,08,16,09,17.20
2013,08,08,16,10,17.10
2013,08,08,16,11,17.40
2013,08,08,16,12,17.90
2013,08,08,16,13,18.50
2013,08,08,16,14,18.70
2013,08,08,16,15,18.70
2013,08,08,16,16,18.70
2013,08,08,16,17,18.80
2013,08,08,16,18,19.40
2013,08,08,16,19,19.40
2013,08,08,16,20,19.80
2013,08,08,16,21,19.80
2013,08,08,16,22,20.10
2013,08,08,16,23,20.20
2013,08,08,16,24,19.60
2013,08,08,16,25,19.00
2013,08,08,16,26,19.20
2013,08,08,16,27,19.40
2013,08,08,16,28,19.40
2013,08,08,16,29,19.20
2013,08,08,16,30,18.90
2013,08,08,16,31,18.40
2013,08,08,16,32,18.00
2013,08,08,16,33,18.10
2013,08,08,16,34,18.40
2013,08,08,16,35,18.50
2013,08,08,16,36,18.70
2013,08,08,16,37,18.70
2013,08,08,16,38,18.60
2013,08,08,16,39,18.30
2013,08,08,16,40,18.30
2013,08,08,16,41,18.50
2013,08,08,16,42,18.60
2013,08,08,16,43,18.70
2013,08,08,16,44,18.80
2013,08,08,16,45,18.70
2013,08,08,16,46,18.90
2013,08,08,16,47,19.10
2013,08,08,16,48,19.00
2013,08,08,16,49,19.10
2013,08,08,16,50,19.20
2013,08,08,16,51,19.10
2013,08,08,16,52,19.10
2013,08,08,16,53,19.20
2013,08,08,16,54,19.20
2013,08,08,16,55,19.20
2013,08,08,16,56,19.20
2013,08,08,16,57,19.20
2013,08,08,16,58,19.10
2013,08,08,16,59,19.10
2013,08,08,17,00,19.20
2013,08,08,17,01,19.30
2013,08,08,17,02,19.40
2013,08,08,17,03,19.40
2013,08,08,17,04,19.40
2013,08,08,17,05,19.50
2013,08,08,17,06,19.50
2013,08,08,17,07,19.40
2013,08,08,17,08,19.30
2013,08,08,17,09,19.10
2013,08,08,17,10,18.90
2013,08,08,17,11,18.70
2013,08,08,17,12,18.80
2013,08,08,17,13,19.10
2013,08,08,17,14,19.50
2013,08,08,17,15,19.70
2013,08,08,17,16,19.70
2013,08,08,17,17,19.70
2013,08,08,17,18,19.70
2013,08,08,17,19,19.70